Location: ????
(30.2663°N, 31.2484°E)
Time: 02:59:55
(UTC+00:00)

Cosmos 1802 Rocket - Visible Passes

Search period start: 29 March 2023 00:00
Search period end: 08 April 2023 00:00
Orbit: 953 x 1012 km, 82.9° (Epoch: 28 March)

Date Brightness Start Highest point End Pass type
(mag) Time Alt. Az. Time Alt. Az. Time Alt. Az.
29 Mar 4.6 17:14:13 10° NNW 17:20:28 63° W 17:26:45 10° S visible
30 Mar 5.9 17:42:23 10° NNW 17:47:47 31° W 17:53:15 10° SSW visible
31 Mar 6.9 18:11:44 10° NW 18:14:57 15° W 18:18:13 10° WSW visible
01 Apr 4.6 16:51:20 10° NNW 16:57:37 66° W 17:03:56 10° S visible
02 Apr 5.9 17:19:26 10° NNW 17:24:57 32° W 17:30:31 10° SSW visible
03 Apr 6.9 17:48:39 10° NW 17:52:08 15° W 17:55:38 10° WSW visible
04 Apr 4.6 16:28:27 10° NNW 16:34:46 69° W 16:41:08 10° S visible
05 Apr 6.0 16:56:31 10° NNW 17:02:07 34° W 17:07:47 10° SSW visible
06 Apr 7.0 17:25:36 10° NW 17:29:19 16° W 17:33:02 10° WSW visible
